Location: Amarillo Post Office Jordan Station
(35.1907°N, 101.9342°W)
Time: 12:06:15
(UTC+00:00)

Cosmos 1703 - Pass Details

Date: 24 January 2021
Orbit: 524 x 538 km, 82.5° (Epoch: 04 March)

Event Time Altitude Azimuth Distance (km) Brightness Sun altitude
Exits shadow 12:26:07 - 353° (N) 2,155 6.2 -17.6°
Reaches altitude 10° 12:27:02 10° 353° (N) 1,778 5.7 -17.4°
Maximum altitude 12:30:56 87° 267° (W) 535 3.1 -16.6°
Drops below altitude 10° 12:34:50 10° 175° (S) 1,773 6.1 -15.8°
Sets 12:36:59 0° 175° (S) 2,661 7.0 -15.4°
